Burlington, IA

5:19 AM CST on January 24, 2017 (GMT -0600)
Burlington Regional

Weather History for KBRL - September, 2012

Change the Weather History Date:

Thursday, September 6, 2012

  Actual Average Record
Temperature  
Mean Temperature 74 °F 71 °F  
Max Temperature 85 °F 82 °F 102 °F (1899)
Min Temperature 62 °F 61 °F 44 °F (1988)
Degree Days  
Heating Degree Days 0 1  
Month to date heating degree days 0 2  
Since 1 July heating degree days 3 6  
Cooling Degree Days 9 7  
Month to date cooling degree days 72 45  
Year to date cooling degree days 1254 1088  
Growing Degree Days 24 (Base 50)    
Moisture  
Dew Point 58 °F    
Average Humidity 62    
Maximum Humidity 93    
Minimum Humidity 31    
Precipitation  
Precipitation 0.00 in 0.13 in 1.51 in (1989)
Month to date precipitation 1.72 0.79  
Year to date precipitation 17.39 28.04  
Sea Level Pressure  
Sea Level Pressure 29.91 in    
Wind  
Wind Speed 4 mph (NNE)    
Max Wind Speed 9 mph    
Max Gust Speed 13 mph    
Visibility 10 miles    
Events      
T = Trace of Precipitation, MM = Missing Value Source: NWS Daily Summary

Daily Weather History Graph

Daily Weather History Graph

Search for Another Location

Airport or City:

Trip Planner

Search our weather history database for the weather conditions in past years. The results will help you decide how hot, cold, wet, or windy it might be!

Date:

Astronomy

Sep. 06, 2012 Rise Set
Actual Time 6:36 AM CDT 7:27 PM CDT
Civil Twilight 6:08 AM CDT 7:55 PM CDT
Nautical Twilight 5:35 AM CDT 8:28 PM CDT
Astronomical Twilight 5:01 AM CDT 9:02 PM CDT
Moon 10:36 PM CDT (9/6) 12:38 PM CDT (9/6)
Length of Visible Light 13h 46m
Length of Day
12h 50m
Waning Gibbous, 67% of the Moon is Illuminated
Sep 6
Waning Gibbous
Sep 8
Last Quarter
Sep 15
New
Sep 22
First Quarter
Sep 29
Full

Hourly Weather History & Observations

Time (CDT) Temp. Heat Index Dew Point Humidity Pressure Visibility Wind Dir Wind Speed Gust Speed Precip Events Conditions
12:53 AM 73.0 °F - 68.0 °F 84% 29.87 in 10.0 mi NNW 6.9 mph - N/A   Mostly Cloudy
1:53 AM 71.1 °F - 66.9 °F 87% 29.88 in 10.0 mi North 6.9 mph - N/A   Mostly Cloudy
2:53 AM 70.0 °F - 66.9 °F 90% 29.88 in 10.0 mi North 5.8 mph - N/A   Partly Cloudy
3:53 AM 69.1 °F - 66.0 °F 90% 29.89 in 10.0 mi NNW 6.9 mph - N/A   Partly Cloudy
4:53 AM 66.9 °F - 64.9 °F 93% 29.91 in 10.0 mi NNW 5.8 mph - N/A   Clear
5:53 AM 64.9 °F - 62.1 °F 90% 29.92 in 10.0 mi North 5.8 mph - N/A   Clear
6:53 AM 64.0 °F - 62.1 °F 93% 29.94 in 10.0 mi NNW 5.8 mph - N/A   Clear
7:53 AM 66.0 °F - 63.0 °F 90% 29.96 in 10.0 mi North 3.5 mph - N/A   Clear
8:53 AM 71.1 °F - 61.0 °F 70% 29.97 in 10.0 mi North 5.8 mph - N/A   Clear
9:53 AM 75.0 °F - 57.9 °F 55% 29.99 in 10.0 mi NNE 6.9 mph - N/A   Clear
10:53 AM 78.1 °F - 57.9 °F 50% 29.99 in 10.0 mi NE 5.8 mph - N/A   Clear
11:53 AM 80.1 °F 80.1 °F 55.0 °F 42% 29.98 in 10.0 mi Calm Calm - N/A   Clear
12:53 PM 82.0 °F 81.2 °F 53.1 °F 37% 29.96 in 10.0 mi Variable 4.6 mph - N/A   Clear
1:53 PM 82.9 °F 81.8 °F 53.1 °F 36% 29.94 in 10.0 mi NE 5.8 mph - N/A   Clear
2:53 PM 82.9 °F - 52.0 °F 34% 29.92 in 10.0 mi East 5.8 mph - N/A   Clear
3:53 PM 82.9 °F 81.9 °F 54.0 °F 37% 29.90 in 10.0 mi ENE 8.1 mph - N/A   Clear
4:53 PM 84.0 °F - 50.0 °F 31% 29.89 in 10.0 mi SE 3.5 mph - N/A   Clear
5:53 PM 82.0 °F - 52.0 °F 35% 29.89 in 10.0 mi Calm Calm - N/A   Clear
6:53 PM 79.0 °F - 54.0 °F 42% 29.88 in 10.0 mi Calm Calm - N/A   Clear
7:53 PM 71.1 °F - 57.0 °F 61% 29.88 in 10.0 mi Calm Calm - N/A   Clear
8:53 PM 69.1 °F - 57.9 °F 68% 29.88 in 10.0 mi NE 3.5 mph - N/A   Clear
9:53 PM 69.8 °F - 55.4 °F 60% 29.89 in 10.0 mi Calm Calm - N/A   Clear
10:53 PM 70.0 °F - 55.0 °F 59% 29.86 in 10.0 mi East 4.6 mph - N/A   Clear
11:53 PM 69.1 °F - 57.0 °F 65% 29.85 in 10.0 mi ESE 4.6 mph - N/A   Clear